Regional Weather Roundup
Issued by NWS Goodland, KS

Home | Current Version | Previous Version | Graphics & Text | Print | Product List | Glossary On
Versions: 1 2 3 4 5 6 7 8 9 10 11 12 13 14 15 16 17 18 19 20 21 22 23 24 25 26 27 28 29 30 31 32 33 34 35 36 37 38 39 40 41 42 43 44 45 46 47 48 49 50
000
ASUS43 KGLD 191308
RWRGLD

GOODLAND FORECAST AREA HOURLY WEATHER ROUNDUP
NATIONAL WEATHER SERVICE GOODLAND KS
700 AM MDT THU OCT 19 2017

...OFFICIAL OBSERVATIONS...

CITY           SKY/WX    TMP DP  RH WIND       PRES   REMARKS
GOODLAND KS    CLOUDY    34  32  92 W3        30.07S
HILL CITY KS   CLEAR     38  36  92 W3        30.06S
IMPERIAL NEB   CLOUDY    35  30  82 W7        30.06F
MCCOOK NEB     CLOUDY    34  33  96 SW3       30.06S
AKRON CO       CLOUDY    45  30  55 SW12      30.06F
BURLINGTON CO  CLOUDY    39  32  76 SW6       30.08F
LIMON CO       CLOUDY    29  27  92 N7        30.11F
$$

...UNOFFICIAL OBSERVATIONS...

CITY           SKY/WX    TMP DP  RH WIND       PRES   REMARKS
NORTON KS      CLEAR     34  28  80 CALM      30.05
SHARON SPRINGS   N/A     38  33  81 CALM        N/A
TRIBUNE KS     CLOUDY    37  34  87 W5        30.09
YUMA CO        FAIR      34  30  86 W6        30.07S
$$




USA.gov is the U.S. government's official web portal to all federal, state and local government web resources and services.